User: anonymous   Login
Location: �mondeville
(49.4591°N, 1.3431°W)
Time: 23:57:46
(UTC+00:00)
Language:

Cosmos 1626 Rocket - Orbit

View from above orbital plane
View from above orbital plane
View from above satellite
View from above satellite

Ground track
Ground track

The orbit data is extracted from the following two-line orbital elements,

1 15495U 85009B   19341.81101547  .00000050  00000-0  31494-5 0  9992
2 15495  82.5260  60.9780 0019013 225.6965 134.2692 14.83855625883966
Epoch (UTC): 07 December 2019 19:27:51
Eccentricity: 0.0019013
inclination: 82.5260°
perigee height: 604 km
apogee height: 630 km
right ascension of ascending node: 60.9780°
argument of perigee: 225.6965°
revolutions per day: 14.83855625
mean anomaly at epoch: 134.2692°
orbit number at epoch: 88396

The dashed part of the orbit path shows where the satellite is in the earth's shadow,  

DLR